User: anonymous
Location: Lawrence
(38.9720°N, 95.2350°W)
Time: 19:55:59
(UTC-05:00)
Language:

ALOS - Orbit

View from above orbital plane
View from above orbital plane
View from above satellite
View from above satellite

Ground track
Ground track

The orbit data is extracted from the following two-line orbital elements,

1 28931U 06002A   14210.44235181  .00000530  00000-0  11669-3 0   150
2 28931 097.9802 267.0310 0002011 081.0096 044.9869 14.61219477453494
Epoch (UTC): 29 July 2014 10:36:59
Eccentricity: 0.0002011
inclination: 97.9802°
perigee height: 688 km
apogee height: 690 km
right ascension of ascending node: 267.0310°
argument of perigee: 81.0096°
revolutions per day: 14.61219477
mean anomaly at epoch: 44.9869°
orbit number at epoch: 45349

The dashed part of the orbit path shows where the satellite is in the earth's shadow,  

DLR